Weather in Kichibukhino

Russia / Yaroslavl Oblast     56°40′57″N   38°57′34″E
temp.,
°C
wind,
m/s
gust,
m/s
humid.,
%
clouds,
%
prec.,
mm/h
press.,
hPa
HPBL,
m
15 april, thu
thu1500:00+11s335831 0.0 101823
03:00+9nnw226469 0.0 101823
06:00+8ne3478100 0.0 101870
09:00+11ne467496 0.0 1018305
12:00+15ne5662100 0.0 1019760
15:00+15ne6766100 0.0 1019855
18:00+12ne71276100 0.0 1020632
21:00+8ne71384100 0.0 1021536
16 april, fri
fri1600:00+7ene7148899 0.0 1022495
03:00+5ene71489100 0.0 1023466
06:00+4ene61388100 0.0 1024477
09:00+7ene71077100 0.0 1024566
12:00+11ene7963100 0.0 1024817
15:00+13ene7956100 0.0 10241118
18:00+11ene71162100 0.0 1024896
21:00+8ene61367100 0.0 1026523
17 april, sat
sat1700:00+6ene61368100 0.0 1026433
03:00+5ene51273100 0.0 1027400
06:00+4ene5127748 0.0 1028386
09:00+7ene6105956 0.0 1028562
12:00+11ene794566 0.0 1027985
15:00+13ene79355 0.0 10271336
18:00+11ene69424 0.0 1026968
21:00+7ene513605 0.0 1026338
18 april, sun
sun1800:00+5ene513700 0.0 1027330
03:00+4ene412760 0.0 1027287
06:00+3ne512790 0.0 1027305
09:00+8ene610601 0.0 1027831
12:00+11ene68455 0.0 10261510
15:00+12ene68385 0.0 10261833
18:00+10ene6850100 0.0 10271056
21:00+7ne3967100 0.0 1028206
19 april, mon
mon1900:00+6ene5107798 0.0 1029461
03:00+3ne498448 0.0 1030324
06:00+3ene4889100 0.0 1030315
09:00+6ene576551 0.0 1030658
12:00+9e564734 0.0 10301291
15:00+10e5640100 0.0 10291638
18:00+9ene5742100 0.0 1029842
21:00+5ene41051100 0.0 1030305